Flag for Canada Weather past 2 weeks in Corner Brook, Newfoundland and Labrador, Canada

Now
30 °F

Light snow. Overcast.


Feels Like: 24 °F
Forecast: 17 / 36 °F
Wind: 6 mph from Northeast

Location: Deer Lake

Current Time: Feb 1, 2015 at 11:33:26 AM

Latest Report: Feb 1, 2015 at 10:30 AM


Visibility: 1 mi

Pressure: 29.25 "Hg

Humidity: 93%

Dew point: 28 °F

Location of Corner BrookLocation

Historic Weather in Corner Brook — Graph

°F

Corner Brook temperature yesterday

Maximum temperature yesterday: 36 °F (at 8:30 PM)
Minimum temperature yesterday: 21 °F (at 8:30 AM)
Average temperature yesterday: 28 °F

Past Weeks' High & Low Weather Summary

 TemperatureHumidityPressure
High46 °F (Jan 25, 9:30 AM)100% (Jan 19, 11:30 PM)30.53 "Hg (Jan 19, 11:30 PM)
Low0 °F (Jan 27, 6:30 AM)63% (Jan 18, 4:30 PM)28.35 "Hg (Jan 25, 10:30 AM)
Average23 °F84%29.81 "Hg
* Reported Jan 17 10:30 AM — Feb 1 10:30 AM, Corner Brook, Weather by CustomWeather, © 2014

Note: Actual official high and low records may vary slightly from our data, if they occured in-between our weather recording intervals... More about our weather records

Advertising

Corner Brook weather history for previous 24 hours

 ConditionsComfort  
Time TempWeatherWind HumidityBarometerVisibility
10:30 AM
Feb 1
30 °FLight snow. Overcast.6 mph93%29.25 "Hg1 mi
9:30 AM30 °FLight snow. Ice fog.7 mph93%29.29 "Hg1 mi
8:30 AM30 °FLight snow. Low clouds.12 mph93%29.27 "Hg1 mi
7:30 AM30 °FLight snow. Mostly cloudy.12 mph100%29.30 "Hg1 mi
6:30 AM32 °FLight snow. Mostly cloudy.12 mph93%29.33 "Hg1 mi
6:15 AM32 °FLight snow. Mostly cloudy.12 mph93%29.33 "Hg1 mi
5:30 AM32 °FLight snow. Mostly cloudy.13 mph100%29.35 "Hg2 mi
5:21 AM32 °FLight snow. Mostly cloudy.13 mph100%29.36 "Hg4 mi
4:30 AM34 °FSprinkles. Mostly cloudy.12 mph93%29.36 "Hg7 mi
3:30 AM36 °FDrizzle. Low clouds.10 mph93%29.39 "Hg12 mi
2:30 AM36 °FDrizzle. Fog.9 mph93%29.41 "Hg6 mi
1:30 AM36 °FDrizzle. Overcast.14 mph93%29.48 "Hg8 mi
12:30 AM36 °FDrizzle. Overcast.13 mph93%29.48 "Hg7 mi
11:30 PM
Jan 31
36 °FDrizzle. Mostly cloudy.16 mph87%29.50 "Hg10 mi
10:30 PM36 °FDrizzle. Mostly cloudy.24 mph87%29.52 "Hg12 mi
9:30 PM36 °FDrizzle. Mostly cloudy.20 mph87%29.56 "Hg10 mi
9:24 PM36 °FDrizzle. Mostly cloudy.22 mph87%29.57 "Hg15 mi
8:30 PM36 °FPassing clouds.24 mph87%29.58 "Hg15 mi
7:30 PM32 °FOvercast.9 mph93%29.64 "Hg15 mi
6:30 PM32 °FLight freezing rain. Overcast.16 mph87%29.67 "Hg10 mi
6:17 PM30 °FLight freezing rain. Overcast.10 mph93%29.68 "Hg10 mi
5:30 PM30 °FOvercast.18 mph86%29.70 "Hg10 mi
4:30 PM30 °FOvercast.15 mph86%29.74 "Hg15 mi
3:30 PM30 °FMore clouds than sun.18 mph86%29.76 "Hg15 mi
2:30 PM30 °FMore clouds than sun.16 mph86%29.79 "Hg15 mi
1:38 PM28 °FMore clouds than sun.12 mph86%29.81 "Hg15 mi
12:30 PM25 °FMore clouds than sun.14 mph93%29.85 "Hg15 mi
11:30 AM23 °FLow clouds.14 mph93%29.89 "Hg15 mi
Weather by CustomWeather, © 2014

See weather overviewHow to use our weather pages